FENGMANIU-1 (FMN-1) (43192 NORAD) Tracking and Keplerian Element Data

This shows tracking and keplerian element data for the satellite.

Feedback or suggestion? Click here.




ElementValue
Catalog43192
NameFENGMANIU-1 (FMN-1)
Epoch Orbit28366
Epoch Day63.03195451
Epoch Year2023
RAAN225.476
Inclination97.5492
Eccentricity0.0007109
Argument of Perigee261.5828
Mean Anonmoly224.6718
Mean Motion15.8588548
Decay Rate0.00599008
L11 43192U 18015A 23063.03195451 .00599008 00000+0 23027-2 0 9992
L22 43192 97.5492 225.4760 0007109 261.5828 224.6718 15.85885480283669



Live tracking and technical data element details for FENGMANIU-1 (FMN-1) (NORAD 43192). FENGMANIU-1 (FMN-1) can be tracked NOW for your location showing map with azimuth and elevation plus other details from your city location.







IsCatalogInMostPopularTable: catalog: 43192, numindb: 853
Update: records affected: 1



GetName: 43192 FENGMANIU-1 (FMN-1)

Hit Count: updated at: Tue, 17 Sep 2024 12:12:56 GMT